{"data":{"norad_id":65221,"epoch":"2026-09-20T20:56:26.766528Z","epoch_age_seconds":85313,"freshness":"FRESH","line1":"1 65221U 25176Z   26263.87253202  .00013091  00000+0  39800-3 0  9991","line2":"2 65221  53.1609 321.8770 0001255  87.4230 272.6916 15.34391421 63068","mean_motion":15.34391421,"eccentricity":0.0001255,"inclination_deg":53.1609,"raan_deg":321.877,"arg_perigee_deg":87.423,"mean_anomaly_deg":272.6916,"bstar":0.000398,"rev_number":6306,"period_min":93.848282797457,"perigee_km":461.87021027162,"apogee_km":463.58726757209,"semimajor_km":6840.8657389219,"source":"CELESTRAK","updated_at":"2026-09-21T09:00:35.538352Z"}}